Miscellaneous Local Product
Issued by NWS Hastings, NE

Home | Current Version | Previous Version | Text Only | Print | Product List | Glossary On
Versions: 1 2 3 4 5 6 7 8 9 10 11 12 13 14 15 16 17 18 19 20 21 22 23 24 25 26 27 28 29 30 31 32 33 34 35 36 37 38 39 40 41 42 43 44 45 46 47 48 49 50
000
AXUS43 KGID 210302
MISGRI

GID CWA HOURLY WEATHER ROUNDUP
NATIONAL WEATHER SERVICE HASTINGS NE
1000 PM CDT MON OCT 20 2014

NOTE: "FAIR" INDICATES FEW OR NO CLOUDS BELOW 12,000 FEET WITH NO
SIGNIFICANT WEATHER AND/OR OBSTRUCTIONS TO VISIBILITY.

...SOUTH CENTRAL NEBRASKA...

CITY           SKY/WX    TMP DP  RH WIND       PRES   REMARKS
GRAND ISLAND   CLEAR     52  41  66 SE7       30.07S
HASTINGS       CLEAR     53  40  61 SE3       30.07R
KEARNEY        CLEAR     52  39  62 CALM      30.07S
ORD            CLEAR     48  40  73 CALM      30.04S
YORK           CLEAR     55  37  50 SE5       30.08R
AURORA         CLEAR     50  38  64 E6        30.07S HAZE
LEXINGTON      CLEAR     55  41  60 SE5       30.06S
HOLDREGE       CLEAR     54  41  62 CALM      30.07S HAZE
HEBRON         CLEAR     48  40  72 CALM      30.08R

...NEBRASKA PANHANDLE...

CITY           SKY/WX    TMP DP  RH WIND       PRES   REMARKS
CHADRON        CLEAR     68  37  32 S20       29.92F
ALLIANCE       CLEAR     52  40  63 S13       30.01R
SCOTTSBLUFF    CLEAR     52  38  58 E8        30.01R
SIDNEY         CLEAR     57  39  51 S14       30.07R

...WESTERN AND NORTH CENTRAL NEBRASKA...

CITY           SKY/WX    TMP DP  RH WIND       PRES   REMARKS
VALENTINE      CLEAR     58  39  49 S5        29.99S
AINSWORTH      CLEAR     58  42  54 S10       30.01S
ONEILL         CLEAR     56  42  57 SE7       30.04S
BROKEN BOW     CLEAR     44  38  79 CALM      30.05S
IMPERIAL       CLEAR     62  37  39 S9        30.07R
NORTH PLATTE   CLEAR     49  40  71 SE9       30.05S
MCCOOK         CLEAR     56  40  55 S7        30.07S

...EASTERN NEBRASKA...

CITY           SKY/WX    TMP DP  RH WIND       PRES   REMARKS
NORFOLK        CLEAR     46  36  68 CALM      30.06R
SO SIOUX CITY  CLEAR     42  40  92 CALM      30.06R
TEKAMAH        CLEAR     45  39  79 CALM      30.06R
COLUMBUS       CLEAR     43  34  70 CALM      30.08S
ALBION         CLEAR     45  38  77 CALM      30.06S
OMAHA EPPLEY   CLEAR     52  43  71 CALM      30.07R
OFFUTT AFB     CLEAR     44  44 100 CALM      30.06R
MILLARD        CLEAR     49  45  87 CALM      30.06R
LINCOLN        CLEAR     43  38  82 CALM      30.09R
NEBRASKA CITY  CLEAR     60  31  33 CALM      30.07S
BEATRICE       CLEAR     48  40  73 CALM      30.07R
FALLS CITY     CLEAR     54  37  52 CALM      30.06R

...NORTHERN KANSAS...

CITY           SKY/WX    TMP DP  RH WIND       PRES   REMARKS
GOODLAND       CLEAR     53  39  59 S12       30.11S
HILL CITY      CLEAR     53  41  63 CALM      30.09R
NORTON         CLEAR     57  36  44 SE7       30.07
PHILLIPSBURG   CLEAR     57  45  62 CALM      30.08R
BELOIT         CLEAR     50  45  81 CALM      30.06S
HAYS           CLEAR     55  43  62 SE3       30.09R
RUSSELL        CLEAR     54  45  71 S8        30.07S
CONCORDIA      CLEAR     58  43  57 S7        30.07R
SALINA         CLEAR     54  47  77 SW6       30.08R
TOPEKA         CLEAR     51  46  83 CALM      30.08R



USA.gov is the U.S. government's official web portal to all federal, state and local government web resources and services.